This demonstration page uses our WeatherBlox Daily Observations layout. Learn more.

Left ArrowRight Arrow

38.20091, -84.87328

Hourly Observations for January 14, 2015

Temp ( °F °C ) Dew Point ( °F °C ) Humidity (%) Winds ( mph kmh ) Pressure ( in mb ) Visibility ( mi km ) Precip ( " mm )
12:53 am 00:53 Cloudy 25 -3.9 16 -8.9 69 69 N 5 7 30.37 1029 10 16 0.00 0.00
1:53 am 01:53 Cloudy 25 -3.9 16 -8.9 69 69 N 3 6 30.36 1028 10 16 0.00 0.00
2:53 am 02:53 Cloudy 25 -3.9 16 -8.9 69 69 NNE 3 6 30.36 1028 10 16 0.00 0.00
3:53 am 03:53 Cloudy 25 -3.9 16 -8.9 69 69 Calm 30.35 1028 10 16 0.00 0.00
4:53 am 04:53 Cloudy 24 -4.4 16 -8.9 71 71 NW 3 6 30.35 1028 10 16 0.00 0.00
5:53 am 05:53 Cloudy 24 -4.4 16 -8.9 71 71 Calm 30.35 1028 10 16 0.00 0.00
6:53 am 06:53 Cloudy 24 -4.4 17 -8.3 75 75 Calm 30.36 1028 10 16 0.00 0.00
7:53 am 07:53 Cloudy 24 -4.4 17 -8.3 75 75 Calm 30.37 1028 10 16 0.00 0.00
8:53 am 08:53 Cloudy 25 -3.9 17 -8.3 72 72 WNW 5 7 30.38 1029 10 16 0.00 0.00
9:53 am 09:53 Cloudy 25 -3.9 17 -8.3 72 72 NNW 5 7 30.38 1029 10 16 0.00 0.00
10:53 am 10:53 Cloudy 25 -3.9 16 -8.9 69 69 NW 3 6 30.38 1029 10 16 0.00 0.00
11:53 am 11:53 Cloudy 26 -3.3 16 -8.9 66 66 Calm 30.37 1028 10 16 0.00 0.00
12:53 pm 12:53 Cloudy 27 -2.8 16 -8.9 63 63 Calm 30.33 1027 10 16 0.00 0.00
1:53 pm 13:53 Mostly Cloudy 28 -2.2 16 -8.9 60 60 SW 5 7 30.30 1026 10 16 0.00 0.00
2:12 pm 14:12 Partly Cloudy 28 -2.2 17 -8.3 63 63 NNW 3 6 30.33 1027 10 16 0.00 0.00
2:49 pm 14:49 Mostly Cloudy 28 -2 16 -9 59 59 Calm 30.33 1027 10 16 0.00 0.00
2:53 pm 14:53 Mostly Cloudy 28 -2.2 16 -8.9 60 60 Calm 30.29 1026 10 16 0.00 0.00
3:39 pm 15:39 Mostly Sunny 30 -1.1 16 -8.9 56 56 W 6 9 30.33 1027 10 16 0.00 0.00
3:53 pm 15:53 Mostly Sunny 30 -1.1 16 -8.9 56 56 VRB 3 6 30.29 1026 10 16 0.00 0.00
4:53 pm 16:53 Sunny 29 -1.7 16 -8.9 58 58 WNW 5 7 30.30 1026 10 16 0.00 0.00
5:53 pm 17:53 Clear 28 -2.2 16 -8.9 60 60 Calm 30.31 1027 10 16 0.00 0.00
6:53 pm 18:53 Clear 24 -4.4 17 -8.3 75 75 Calm 30.30 1026 10 16 0.00 0.00
7:53 pm 19:53 Clear 22 -5.6 16 -8.9 78 78 Calm 30.31 1026 10 16 0.00 0.00
8:53 pm 20:53 Partly Cloudy 22 -5.6 16 -8.9 78 78 Calm 30.31 1026 10 16 0.00 0.00
9:53 pm 21:53 Cloudy 24 -4.4 19 -7.2 81 81 Calm 30.29 1026 10 16 0.00 0.00
10:53 pm 22:53 Cloudy 25 -3.9 19 -7.2 78 78 Calm 30.29 1026 10 16 0.00 0.00
11:53 pm 23:53 Cloudy 26 -3.3 20 -6.7 78 78 Calm 30.28 1025 10 16 0.00 0.00

Powered by AerisWeather